This is the latest recevied weather packets stored in our database for station/object OE-11399. If no packets are shown the sender has not sent any weather packets the latest 10 day(s).
| Time | Temp. | Humidity | Pressure | Rain* | Wind** | Luminosity | Snow |
|---|---|---|---|---|---|---|---|
| 1787906499 | 19.44° C | 78% | 853.7 hPa | 0 mm | - | 257 W/m² | - |
| 1787906124 | 18.89° C | 79% | 853.9 hPa | 0 mm | - | 360 W/m² | - |
| 1787905525 | 18.33° C | 81% | 854 hPa | 0 mm | - | 308 W/m² | - |
| 1787904700 | 18.33° C | 85% | 854 hPa | 0 mm | - | 360 W/m² | - |
| 1787904327 | 17.22° C | 86% | 854.1 hPa | 0 mm | - | 205 W/m² | - |
| 1787903727 | 16.67° C | 88% | 853.9 hPa | 0 mm | - | 176 W/m² | - |
| 1787902899 | 16.67° C | 89% | 853.9 hPa | 0 mm | - | 147 W/m² | - |
| 1787902527 | 16.11° C | 89% | 853.8 hPa | 0 mm | - | 161 W/m² | - |
| 1787901927 | 16.11° C | 92% | 853.6 hPa | 0 mm | - | 191 W/m² | - |
| 1787901099 | 15.56° C | 92% | 853.5 hPa | 0 mm | - | 139 W/m² | - |
| 1787900726 | 15.56° C | 93% | 853.8 hPa | 0 mm | - | 110 W/m² | - |
| 1787900127 | 15.56° C | 93% | 853.8 hPa | 0 mm | - | 110 W/m² | - |
| 1787899300 | 15.56° C | 94% | 853.7 hPa | 0 mm | - | 88 W/m² | - |
| 1787898927 | 15° C | 94% | 853.8 hPa | 0 mm | - | 81 W/m² | - |
| 1787898327 | 15° C | 94% | 853.9 hPa | 0 mm | - | 88 W/m² | - |
| 1787897499 | 15° C | 95% | 853.8 hPa | 0 mm | - | 66 W/m² | - |
| 1787897126 | 14.44° C | 95% | 853.9 hPa | 0 mm | - | 66 W/m² | - |
| 1787896526 | 14.44° C | 95% | 853.9 hPa | 0 mm | - | 59 W/m² | - |
| 1787895699 | 14.44° C | 94% | 853.9 hPa | 0 mm | - | 29 W/m² | - |
| 1787895327 | 13.89° C | 93% | 853.8 hPa | 0 mm | - | 15 W/m² | - |
| 1787894727 | 13.89° C | 94% | 853.7 hPa | 0 mm | - | 7 W/m² | - |
| 1787893900 | 13.89° C | 95% | 853.6 hPa | 0 mm | - | 0 W/m² | - |
| 1787893527 | 13.33° C | 92% | 853.5 hPa | 0 mm | - | 0 W/m² | - |
| 1787892927 | 13.33° C | 92% | 853.4 hPa | 0 mm | - | 0 W/m² | - |
| 1787892099 | 13.33° C | 92% | 853.3 hPa | 0 mm | - | 0 W/m² | - |
* Rain latest hour (hover to see other rain measurements)
** Current wind speed in m/s (hover to see current wind gust speed)